Change the Weather History Date:

Saturday, August 25, 2012

  Actual Average Record
Temperature  
Mean Temperature 60 °F 66 °F  
Max Temperature 80 °F 82 °F 97 °F (1966)
Min Temperature 40 °F 50 °F 28 °F (1992)
Degree Days  
Heating Degree Days 5 2  
Month to date heating degree days 21 24  
Since 1 June heating degree days 143 187  
Since 1 July heating degree days 21 51  
Cooling Degree Days 0 3  
Month to date cooling degree days 161 130  
Year to date cooling degree days 495 368  
Since 1 June cooling degree days 491 360  
Growing Degree Days 10 (Base 50)    
Moisture  
Dew Point 25 °F    
Average Humidity 35    
Maximum Humidity 58    
Minimum Humidity 11    
Precipitation  
Precipitation 0.00 in 0.04 in 0.40 in (1990)
Month to date precipitation 0.56 0.96  
Year to date precipitation 6.37 8.31  
Snow  
Snow 0.00 in 0.00 in T in (1955)
Month to date snowfall 0.0 0.2  
Since 1 June snowfall 0.0 0.2  
Since 1 July snowfall 0.0 0.2  
Snow Depth 0.00 in    
Sea Level Pressure  
Sea Level Pressure 29.98 in    
Wind  
Wind Speed 4 mph (ESE)    
Max Wind Speed 13 mph    
Max Gust Speed 15 mph    
Visibility 10 miles    
Events      
T = Trace of Precipitation, MM = Missing Value Source: NWS Daily Summary

Daily Weather History Graph

Daily Weather History Graph

Search for Another Location

Airport or City:

Trip Planner

Search our weather history database for the weather conditions in past years. The results will help you decide how hot, cold, wet, or windy it might be!

Date:

Astronomy

Aug. 25, 2012 Rise Set
Actual Time 6:39 AM MDT 8:19 PM MDT
Civil Twilight 6:07 AM MDT 8:50 PM MDT
Nautical Twilight 5:28 AM MDT 9:29 PM MDT
Astronomical Twilight 4:46 AM MDT 10:11 PM MDT
Moon 4:08 PM MDT (8/25) 12:14 AM MDT (8/25)
Length of Visible Light 14h 43m
Length of Day
13h 39m
Waxing Gibbous, 63% of the Moon is Illuminated
Aug 25
Waxing Gibbous
Aug 31
Full
Sep 8
Last Quarter
Sep 15
New
Sep 22
First Quarter

Hourly Weather History & Observations

Time (MDT) Temp. Dew Point Humidity Pressure Visibility Wind Dir Wind Speed Gust Speed Precip Events Conditions
12:53 AM 57.0 °F 26.1 °F 30% 30.03 in 10.0 mi SW 5.8 mph - N/A   Clear
1:53 AM 55.0 °F 27.0 °F 34% 30.03 in 10.0 mi SW 5.8 mph - N/A   Clear
2:53 AM 48.9 °F 27.0 °F 43% 30.04 in 10.0 mi Calm Calm - N/A   Clear
3:53 AM 46.9 °F 28.0 °F 48% 30.04 in 10.0 mi Calm Calm - N/A   Clear
4:53 AM 46.9 °F 28.0 °F 48% 30.04 in 10.0 mi Calm Calm - N/A   Clear
5:53 AM 45.0 °F 28.9 °F 53% 30.05 in 10.0 mi Calm Calm - N/A   Clear
6:53 AM 42.1 °F 28.0 °F 58% 30.06 in 10.0 mi Calm Calm - N/A   Clear
7:53 AM 45.0 °F 30.0 °F 56% 30.08 in 10.0 mi Calm Calm - N/A   Clear
8:53 AM 51.1 °F 30.0 °F 44% 30.07 in 10.0 mi Calm Calm - N/A   Clear
9:53 AM 55.9 °F 28.9 °F 36% 30.05 in 10.0 mi Calm Calm - N/A   Clear
10:53 AM 61.0 °F 30.0 °F 31% 30.02 in 10.0 mi ENE 8.1 mph - N/A   Clear
11:53 AM 66.0 °F 30.0 °F 26% 29.98 in 10.0 mi ENE 6.9 mph - N/A   Clear
12:53 PM 71.1 °F 25.0 °F 18% 29.95 in 10.0 mi Variable 6.9 mph - N/A   Clear
1:53 PM 73.9 °F 25.0 °F 16% 29.93 in 10.0 mi Variable 4.6 mph - N/A   Clear
2:53 PM 75.0 °F 21.9 °F 14% 29.92 in 10.0 mi East 10.4 mph - N/A   Clear
3:53 PM 78.1 °F 19.9 °F 11% 29.91 in 10.0 mi East 6.9 mph - N/A   Clear
4:53 PM 79.0 °F 19.0 °F 11% 29.89 in 10.0 mi East 5.8 mph - N/A   Clear
5:53 PM 79.0 °F 19.0 °F 11% 29.88 in 10.0 mi ENE 4.6 mph - N/A   Clear
6:53 PM 79.0 °F 19.0 °F 11% 29.88 in 10.0 mi Variable 4.6 mph - N/A   Clear
7:53 PM 73.0 °F 25.0 °F 17% 29.90 in 10.0 mi North 5.8 mph - N/A   Clear
8:53 PM 71.1 °F 19.9 °F 14% 29.91 in 10.0 mi West 3.5 mph - N/A   Clear
9:53 PM 64.0 °F 23.0 °F 21% 29.93 in 10.0 mi WSW 6.9 mph - N/A   Clear
10:53 PM 62.1 °F 23.0 °F 22% 29.94 in 10.0 mi WSW 8.1 mph - N/A   Clear
11:53 PM 61.0 °F 21.9 °F 22% 29.95 in 10.0 mi WSW 6.9 mph - N/A   Clear